Regional Weather Roundup
Issued by NWS

Home | Current Version | Previous Version | Graphics & Text | Print | Product List | Glossary On
Versions: 1 2 3 4 5 6 7 8 9 10 11 12 13 14 15 16 17 18 19 20 21 22 23 24 25 26 27 28 29 30 31 32 33 34 35 36 37 38 39 40 41 42 43 44 45 46 47 48 49 50
000
ASUS45 KCYS 230510
RWRWY

WYOMING REGIONAL WEATHER ROUNDUP
NATIONAL WEATHER SERVICE CHEYENNE WY
1000 PM MST MON JAN 22 2018

NOTE:  "FAIR" INDICATES FEW OR NO CLOUDS BELOW 12,000 FEET
WITH NO SIGNIFICANT WEATHER AND/OR OBSTRUCTIONS TO VISIBILITY.

WYZ001-230600-
YELLOWSTONE NATIONAL PARK

CITY           SKY/WX    TMP DP  RH WIND       PRES   REMARKS
LK YELLOWSTONE   N/A      7   5  91 CALM      30.14S
W YELLOWSTONE  NOT AVBL

$$
WYZ002>013-054>058-071-098>099-230600-
NORTHERN WYOMING

CITY           SKY/WX    TMP DP  RH WIND       PRES   REMARKS
JACKSON        LGT SNOW  16  12  86 E3        30.19S FOG
CODY           FAIR      31  12  45 CALM      30.11R
GREYBULL       CLOUDY    19  14  81 NE5       30.15S WCI  12
WORLAND        FAIR       6   5  95 CALM      30.14R
SHERIDAN       CLOUDY    28  23  81 S3        30.10R
BUFFALO        CLOUDY    29  16  58 CALM      30.08R
GILLETTE       CLOUDY    27  19  72 W12       30.07R WCI  17
HULETT         CLOUDY    30  23  74 CALM      30.07R
NEWCASTLE      FAIR      19  14  79 NW5       30.08S WCI  13

$$
WYZ014>020-022>026-101>103-230600-
CENTRAL WYOMING

CITY           SKY/WX    TMP DP  RH WIND       PRES   REMARKS
BIG PINEY      FAIR       5   3  91 CALM      30.18R
PINEDALE       CLOUDY    16  14  93 CALM      30.18S
DUBOIS         FAIR      18  10  73 N7        30.09S WCI   8
LANDER         MOCLDY     9   6  88 SE3       30.11S
RIVERTON       CLOUDY     8   2  76 W3        30.13R
CASPER         MOCLDY    25  18  74 SW21      30.10R WCI  11
DOUGLAS        FAIR      16  11  80 N6        30.11R WCI   7

$$
WYZ021-027>030-104>119-230600-
SOUTHERN WYOMING

CITY           SKY/WX    TMP DP  RH WIND       PRES   REMARKS
EVANSTON       CLOUDY    22  18  85 SW12      30.23R WCI  10
ROCK SPRINGS   MOCLDY    19  14  81 SW18      30.19R WCI   4
DIXON          LGT SNOW  21  18  87 W5        30.25R WCI  14
RAWLINS        CLOUDY    20  14  77 W20G29    30.12S WCI   4
SARATOGA       CLOUDY    23  14  68 SW14G24   30.15F WCI  11
LARAMIE        CLOUDY    20  11  68 W17       30.06R WCI   5
CHEYENNE       CLOUDY    26  13  57 NW6       30.07R WCI  19
TORRINGTON     FAIR      24  15  68 NW13      30.09S WCI  12

$$



USA.gov is the U.S. government's official web portal to all federal, state and local government web resources and services.